Zurück zum Katalog

STARLINK-30463

AktivKommunikationVLEO
NORAD 57909·PAYLOAD·🇺🇸 United States

Gestartet Sep 20, 2023 von Cape Canaveral Space Force Station

Loading…

Nächste Überflüge (nächste 24 Stunden)

TLE

AktuellSource: CelesTrak SupGP

Epoche: Sep 15, 2026, 02:21 UTC

1 57909C 23146U   26258.09840278  .00036861  00000+0  13349-2 0  2580
2 57909  43.0006 325.0593 0001488 267.9985 230.8321 15.27565650    11

Verfolge STARLINK-30463 in Echtzeit mit AllMySat

Download on the App Store